DO1SC Weather Reports


Display with metric or nautical units.
time (UTC)temp
F
wind
direction
speed
MPH
gust
MPH
rain 1hr
in
rain 24hr
in
rain mn
in
humidity
%
barometer
mb
20260506155031 62 330 1.0 3.0 0.00 0.00 0.00 58 1006.1
20260506154022 62 149 1.0 4.0 0.00 0.00 0.00 54 1006.1
20260506153034 62 18 1.0 2.0 0.00 0.00 0.00 56 1006.2
20260506152025 62 352 0.0 2.0 0.00 0.00 0.00 57 1006.3
20260506151020 62 3 1.0 3.0 0.00 0.00 0.00 58 1006.4
20260506150029 62 163 1.0 3.0 0.00 0.00 0.00 58 1006.4
20260506145020 62 312 1.0 2.0 0.00 0.00 0.00 58 1006.5
20260506144032 62 330 2.0 5.0 0.00 0.00 0.00 57 1006.6
20260506143024 62 7 1.0 4.0 0.00 0.00 0.00 56 1006.5
20260506142036 63 318 1.0 4.0 0.00 0.00 0.00 56 1006.5
20260506141027 62 310 1.0 3.0 0.00 0.00 0.00 56 1006.4
20260506140018 62 135 1.0 3.0 0.00 0.00 0.00 58 1006.5
20260506135030 62 34 1.0 3.0 0.00 0.00 0.00 56 1006.6
20260506134022 61 120 1.0 3.0 0.00 0.00 0.00 58 1006.7
20260506133033 62 85 2.0 4.0 0.00 0.00 0.00 56 1006.8
20260506132024 62 7 1.0 3.0 0.00 0.00 0.00 59 1006.8
20260506131036 61 137 1.0 4.0 0.00 0.00 0.00 56 1006.8
20260506130027 61 327 1.0 2.0 0.00 0.00 0.00 58 1006.9
20260506125019 62 141 2.0 5.0 0.00 0.00 0.00 56 1006.9
20260506124031 62 159 2.0 5.0 0.00 0.00 0.00 59 1006.9
20260506123022 62 123 1.0 5.0 0.00 0.00 0.00 58 1007.0
20260506122034 61 132 2.0 4.0 0.00 0.00 0.00 60 1006.9
20260506121528 62 166 1.0 5.0 0.00 0.00 0.00 62 1007.1
20260506120519 61 132 2.0 9.0 0.00 0.00 0.00 65 1007.2
20260506120027 60 152 1.0 5.0 0.00 0.00 0.00 68 1007.1
20260506115019 59 342 1.0 3.0 0.00 0.00 0.00 71 1007.2
20260506114034 59 127 2.0 5.0 0.00 0.00 0.00 70 1007.2
20260506113026 59 115 1.0 5.0 0.00 0.00 0.00 71 1007.2
20260506112017 59 135 1.0 3.0 0.00 0.00 0.00 71 1007.2
20260506111030 58 138 1.0 5.0 0.00 0.00 0.00 71 1007.2
20260506110021 58 31 1.0 2.0 0.00 0.00 0.00 73 1007.2
20260506105033 59 26 1.0 4.0 0.00 0.00 0.00 73 1007.3
20260506104025 60 328 1.0 3.0 0.00 0.00 0.00 71 1007.2
20260506103018 59 22 2.0 3.0 0.00 0.00 0.00 70 1007.3
20260506102028 59 18 1.0 3.0 0.00 0.00 0.00 72 1007.3
20260506101020 58 78 2.0 6.0 0.00 0.00 0.00 73 1007.3
20260506100032 56 86 2.0 6.0 0.00 0.00 0.00 77 1007.3
20260506095023 55 54 1.0 2.0 0.00 0.00 0.00 81 1007.3
20260506094035 56 47 1.0 4.0 0.00 0.00 0.00 79 1007.4
20260506093026 57 81 1.0 3.0 0.00 0.00 0.00 75 1007.4
20260506092020 58 126 2.0 5.0 0.00 0.00 0.00 73 1007.4
20260506091029 58 105 2.0 8.0 0.00 0.00 0.00 74 1007.2
20260506090020 56 93 2.0 8.0 0.00 0.00 0.00 77 1007.2
20260506085032 56 125 3.0 7.0 0.00 0.00 0.00 78 1007.0
20260506084023 55 110 2.0 6.0 0.00 0.00 0.00 80 1007.1
20260506083035 56 79 2.0 5.0 0.00 0.00 0.00 77 1006.9
20260506082027 55 59 1.0 4.0 0.00 0.00 0.00 79 1007.0
20260506081534 55 130 4.0 6.0 0.00 0.00 0.00 79 1006.8
20260506080518 57 110 3.0 7.0 0.00 0.00 0.00 78 1006.8
20260506072525 54 61 3.0 4.0 0.00 0.00 0.00 87 1006.6
20260506071516 53 53 2.0 4.0 0.00 0.00 0.00 88 1006.6
20260506070528 53 55 2.0 5.0 0.00 0.00 0.00 88 1006.7
20260506061527 52 102 2.0 9.0 0.00 0.00 0.00 91 1006.9
20260506060518 52 83 2.0 5.0 0.00 0.00 0.00 93 1006.8
20260506050529 51 89 3.0 5.0 0.00 0.00 0.00 93 1006.7
20260506044532 51 93 3.0 6.0 0.00 0.00 0.00 94 1006.5
20260506043526 51 79 3.0 6.0 0.00 0.00 0.00 95 1006.4
20260506042535 51 92 2.0 6.0 0.00 0.00 0.00 96 1006.3
20260506041528 51 68 2.0 5.0 0.00 0.00 0.00 96 1006.4
20260506040518 51 73 2.0 5.0 0.00 0.00 0.00 96 1006.3
20260506035530 51 79 2.0 5.0 0.00 0.00 0.00 96 1006.3
20260506034522 51 76 3.0 5.0 0.00 0.00 0.00 96 1006.3
20260506033536 52 114 2.0 4.0 0.00 0.00 0.00 96 1006.2
20260506032525 52 98 2.0 4.0 0.00 0.00 0.00 96 1006.3
20260506031516 52 82 2.0 5.0 0.00 0.00 0.00 95 1006.2
20260506030531 52 104 2.0 4.0 0.00 0.00 0.00 95 1006.3
20260506025520 52 112 2.0 4.0 0.00 0.00 0.00 95 1006.4
20260506024532 52 85 2.0 4.0 0.00 0.00 0.00 95 1006.4
20260506023523 52 93 2.0 4.0 0.00 0.00 0.00 95 1006.4
20260506022535 52 92 2.0 6.0 0.00 0.00 0.00 95 1006.5
20260506021530 52 67 2.0 4.0 0.00 0.00 0.00 95 1006.5
20260506020518 52 112 2.0 6.0 0.00 0.00 0.00 95 1006.5
20260506015529 52 63 2.0 4.0 0.00 0.00 0.00 95 1006.5
20260506014521 52 89 2.0 6.0 0.00 0.00 0.00 94 1006.6
20260506013532 52 118 2.0 6.0 0.00 0.00 0.00 95 1006.7
20260506012524 52 86 2.0 6.0 0.00 0.00 0.00 95 1006.7
20260506011536 52 110 2.0 6.0 0.00 0.00 0.00 95 1006.8
20260506010527 52 45 3.0 6.0 0.00 0.00 0.00 95 1006.8
20260506005519 52 110 3.0 6.0 0.00 0.00 0.00 95 1006.7
20260506004531 52 128 2.0 6.0 0.00 0.00 0.00 95 1006.7
20260506003525 52 79 2.0 6.0 0.00 0.00 0.00 96 1006.7
20260506002534 52 62 2.0 5.0 0.00 0.00 0.00 96 1006.9
20260506001525 52 128 3.0 6.0 0.00 0.00 0.00 96 1007.0
20260506000517 52 76 2.0 4.0 0.00 0.00 0.00 96 1007.0
20260505235528 52 101 2.0 5.0 0.00 0.00 0.00 95 1007.2
20260505234523 52 140 4.0 10.0 0.00 0.00 0.00 95 1007.3
20260505233532 52 83 2.0 7.0 0.00 0.00 0.00 95 1007.2
20260505232527 52 63 3.0 6.0 0.00 0.00 0.00 96 1007.1
20260505231535 52 140 3.0 5.0 0.00 0.00 0.00 96 1007.0
20260505230527 52 41 2.0 4.0 0.00 0.00 0.00 96 1007.0
20260505225521 52 79 3.0 9.0 0.00 0.00 0.00 96 1007.1
20260505224530 51 56 2.0 4.0 0.00 0.00 0.00 96 1007.0
20260505223521 51 171 2.0 6.0 0.00 0.00 0.00 96 1007.1
20260505222533 51 117 2.0 5.0 0.00 0.00 0.00 96 1007.1
20260505221527 51 135 3.0 7.0 0.00 0.00 0.00 96 1007.1
20260505220519 51 65 2.0 6.0 0.00 0.00 0.00 96 1007.1
20260505215527 52 53 3.0 6.0 0.00 0.00 0.00 96 1007.3
20260505214521 51 141 1.0 6.0 0.00 0.00 0.00 96 1007.2
20260505213533 51 129 3.0 8.0 0.00 0.00 0.00 96 1007.3
20260505212525 51 158 3.0 6.0 0.00 0.00 0.00 96 1007.2
20260505211533 51 75 3.0 6.0 0.00 0.00 0.00 96 1007.3
20260505210525 51 78 3.0 7.0 0.00 0.00 0.00 96 1007.5
20260505205517 51 96 3.0 6.0 0.00 0.00 0.00 96 1007.6
20260505204532 51 114 3.0 6.0 0.00 0.00 0.00 96 1007.6
20260505203520 51 137 2.0 5.0 0.00 0.00 0.00 96 1007.6
20260505202533 51 109 1.0 4.0 0.00 0.00 0.00 95 1007.5
20260505201524 51 10 0.0 2.0 0.00 0.00 0.00 95 1007.4
20260505200535 52 105 1.0 3.0 0.00 0.00 0.00 94 1007.1
20260505195529 52 303 1.0 3.0 0.00 0.00 0.00 93 1006.8
20260505194517 52 268 0.0 3.0 0.00 0.00 0.00 92 1006.7
20260505193529 52 280 2.0 9.0 0.00 0.00 0.00 91 1006.8
20260505192520 52 277 3.0 9.0 0.00 0.00 0.00 94 1006.9
20260505191532 52 26 1.0 4.0 0.00 0.00 0.00 95 1007.3
20260505190526 52 56 2.0 4.0 0.00 0.00 0.00 94 1007.6
20260505185533 52 47 1.0 3.0 0.00 0.00 0.00 94 1007.7
20260505184524 52 102 3.0 6.0 0.00 0.00 0.00 93 1007.7
20260505183536 52 97 2.0 6.0 0.00 0.00 0.00 92 1007.8
20260505182528 53 108 3.0 7.0 0.00 0.00 0.00 92 1008.1
20260505181519 54 116 2.0 7.0 0.00 0.00 0.00 88 1008.2
20260505180530 57 116 5.0 18.0 0.00 0.00 0.00 84 1008.1
20260505175521 58 297 3.0 7.0 0.00 0.00 0.00 88 1006.8
20260505174533 58 307 3.0 9.0 0.00 0.00 0.00 86 1006.8
20260505173525 58 303 3.0 6.0 0.00 0.00 0.00 85 1006.8
20260505172536 59 294 3.0 9.0 0.00 0.00 0.00 85 1006.8
20260505171525 59 309 6.0 14.0 0.00 0.00 0.00 84 1006.8
20260505170536 59 314 4.0 7.0 0.00 0.00 0.00 83 1006.9
20260505165527 59 304 4.0 8.0 0.00 0.00 0.00 83 1007.0
20260505164518 60 300 4.0 9.0 0.00 0.00 0.00 82 1007.1
20260505163533 60 311 3.0 7.0 0.00 0.00 0.00 83 1007.1
20260505162522 60 305 3.0 5.0 0.00 0.00 0.00 83 1007.4
20260505161532 60 295 2.0 4.0 0.00 0.00 0.00 83 1007.5
20260505160522 59 295 3.0 6.0 0.00 0.00 0.00 83 1007.4